Year,Month,Day,Hour,Minute,Value (Times are PST for insolation in W/m^2)
2012,06,14,00,00,0.00
2012,06,14,00,01,0.00
2012,06,14,00,02,0.00
2012,06,14,00,03,0.00
2012,06,14,00,04,0.00
2012,06,14,00,05,0.00
2012,06,14,00,06,0.00
2012,06,14,00,07,0.00
2012,06,14,00,08,0.00
2012,06,14,00,09,0.00
2012,06,14,00,10,0.00
2012,06,14,00,11,0.00
2012,06,14,00,12,0.00
2012,06,14,00,13,0.00
2012,06,14,00,14,0.00
2012,06,14,00,15,0.00
2012,06,14,00,16,0.00
2012,06,14,00,17,0.00
2012,06,14,00,18,0.00
2012,06,14,00,19,0.00
2012,06,14,00,20,0.00
2012,06,14,00,21,0.00
2012,06,14,00,22,0.00
2012,06,14,00,23,0.00
2012,06,14,00,24,0.00
2012,06,14,00,25,0.00
2012,06,14,00,26,0.00
2012,06,14,00,27,0.00
2012,06,14,00,28,0.00
2012,06,14,00,29,0.00
2012,06,14,00,30,0.00
2012,06,14,00,31,0.00
2012,06,14,00,32,0.00
2012,06,14,00,33,0.00
2012,06,14,00,34,0.00
2012,06,14,00,35,0.00
2012,06,14,00,36,0.00
2012,06,14,00,37,0.00
2012,06,14,00,38,0.00
2012,06,14,00,39,0.00
2012,06,14,00,40,0.00
2012,06,14,00,41,0.00
2012,06,14,00,42,0.00
2012,06,14,00,43,0.00
2012,06,14,00,44,0.00
2012,06,14,00,45,0.00
2012,06,14,00,46,0.00
2012,06,14,00,47,0.00
2012,06,14,00,48,0.00
2012,06,14,00,49,0.00
2012,06,14,00,50,0.00
2012,06,14,00,51,0.00
2012,06,14,00,52,0.00
2012,06,14,00,53,0.00
2012,06,14,00,54,0.00
2012,06,14,00,55,0.00
2012,06,14,00,56,0.00
2012,06,14,00,57,0.00
2012,06,14,00,58,0.00
2012,06,14,00,59,0.00
2012,06,14,01,00,0.00
2012,06,14,01,01,0.00
2012,06,14,01,02,0.00
2012,06,14,01,03,0.00
2012,06,14,01,04,0.00
2012,06,14,01,05,0.00
2012,06,14,01,06,0.00
2012,06,14,01,07,0.00
2012,06,14,01,08,0.00
2012,06,14,01,09,0.00
2012,06,14,01,10,0.00
2012,06,14,01,11,0.00
2012,06,14,01,12,0.00
2012,06,14,01,13,0.00
2012,06,14,01,14,0.00
2012,06,14,01,15,0.00
2012,06,14,01,16,0.00
2012,06,14,01,17,0.00
2012,06,14,01,18,0.00
2012,06,14,01,19,0.00
2012,06,14,01,20,0.00
2012,06,14,01,21,0.00
2012,06,14,01,22,0.00
2012,06,14,01,23,0.00
2012,06,14,01,24,0.00
2012,06,14,01,25,0.00
2012,06,14,01,26,0.00
2012,06,14,01,27,0.00
2012,06,14,01,28,0.00
2012,06,14,01,29,0.00
2012,06,14,01,30,0.00
2012,06,14,01,31,0.00
2012,06,14,01,32,0.00
2012,06,14,01,33,0.00
2012,06,14,01,34,0.00
2012,06,14,01,35,0.00
2012,06,14,01,36,0.00
2012,06,14,01,37,0.00
2012,06,14,01,38,0.00
2012,06,14,01,39,0.00
2012,06,14,01,40,0.00
2012,06,14,01,41,0.00
2012,06,14,01,42,0.00
2012,06,14,01,43,0.00
2012,06,14,01,44,0.00
2012,06,14,01,45,0.00
2012,06,14,01,46,0.00
2012,06,14,01,47,0.00
2012,06,14,01,48,0.00
2012,06,14,01,49,0.00
2012,06,14,01,50,0.00
2012,06,14,01,51,0.00
2012,06,14,01,52,0.00
2012,06,14,01,53,0.00
2012,06,14,01,54,0.00
2012,06,14,01,55,0.00
2012,06,14,01,56,0.00
2012,06,14,01,57,0.00
2012,06,14,01,58,0.00
2012,06,14,01,59,0.00
2012,06,14,02,00,0.00
2012,06,14,02,01,0.00
2012,06,14,02,02,0.00
2012,06,14,02,03,0.00
2012,06,14,02,04,0.00
2012,06,14,02,05,0.00
2012,06,14,02,06,0.00
2012,06,14,02,07,0.00
2012,06,14,02,08,0.00
2012,06,14,02,09,0.00
2012,06,14,02,10,0.00
2012,06,14,02,11,0.00
2012,06,14,02,12,0.00
2012,06,14,02,13,0.00
2012,06,14,02,14,0.00
2012,06,14,02,15,0.00
2012,06,14,02,16,0.00
2012,06,14,02,17,0.00
2012,06,14,02,18,0.00
2012,06,14,02,19,0.00
2012,06,14,02,20,0.00
2012,06,14,02,21,0.00
2012,06,14,02,22,0.00
2012,06,14,02,23,0.00
2012,06,14,02,24,0.00
2012,06,14,02,25,0.00
2012,06,14,02,26,0.00
2012,06,14,02,27,0.00
2012,06,14,02,28,0.00
2012,06,14,02,29,0.00
2012,06,14,02,30,0.00
2012,06,14,02,31,0.00
2012,06,14,02,32,0.00
2012,06,14,02,33,0.00
2012,06,14,02,34,0.00
2012,06,14,02,35,0.00
2012,06,14,02,36,0.00
2012,06,14,02,37,0.00
2012,06,14,02,38,0.00
2012,06,14,02,39,0.00
2012,06,14,02,40,0.00
2012,06,14,02,41,0.00
2012,06,14,02,42,0.00
2012,06,14,02,43,0.00
2012,06,14,02,44,0.00
2012,06,14,02,45,0.00
2012,06,14,02,46,0.00
2012,06,14,02,47,0.00
2012,06,14,02,48,0.00
2012,06,14,02,49,0.00
2012,06,14,02,50,0.00
2012,06,14,02,51,0.00
2012,06,14,02,52,0.00
2012,06,14,02,53,0.00
2012,06,14,02,54,0.00
2012,06,14,02,55,0.00
2012,06,14,02,56,0.00
2012,06,14,02,57,0.00
2012,06,14,02,58,0.00
2012,06,14,02,59,0.00
2012,06,14,03,00,0.00
2012,06,14,03,01,0.00
2012,06,14,03,02,0.00
2012,06,14,03,03,0.00
2012,06,14,03,04,0.00
2012,06,14,03,05,0.00
2012,06,14,03,06,0.00
2012,06,14,03,07,0.00
2012,06,14,03,08,0.00
2012,06,14,03,09,0.00
2012,06,14,03,10,0.00
2012,06,14,03,11,0.00
2012,06,14,03,12,0.00
2012,06,14,03,13,0.00
2012,06,14,03,14,0.00
2012,06,14,03,15,0.00
2012,06,14,03,16,0.00
2012,06,14,03,17,0.00
2012,06,14,03,18,0.00
2012,06,14,03,19,0.00
2012,06,14,03,20,0.00
2012,06,14,03,21,0.00
2012,06,14,03,22,0.00
2012,06,14,03,23,0.00
2012,06,14,03,24,0.00
2012,06,14,03,25,0.00
2012,06,14,03,26,0.00
2012,06,14,03,27,0.00
2012,06,14,03,28,0.00
2012,06,14,03,29,0.00
2012,06,14,03,30,0.00
2012,06,14,03,31,0.00
2012,06,14,03,32,0.00
2012,06,14,03,33,0.00
2012,06,14,03,34,0.00
2012,06,14,03,35,0.00
2012,06,14,03,36,0.00
2012,06,14,03,37,0.00
2012,06,14,03,38,0.00
2012,06,14,03,39,0.00
2012,06,14,03,40,0.00
2012,06,14,03,41,0.00
2012,06,14,03,42,0.00
2012,06,14,03,43,0.00
2012,06,14,03,44,0.00
2012,06,14,03,45,0.00
2012,06,14,03,46,0.00
2012,06,14,03,47,0.00
2012,06,14,03,48,0.00
2012,06,14,03,49,0.00
2012,06,14,03,50,0.00
2012,06,14,03,51,0.00
2012,06,14,03,52,0.00
2012,06,14,03,53,0.00
2012,06,14,03,54,0.00
2012,06,14,03,55,0.00
2012,06,14,03,56,0.00
2012,06,14,03,57,0.00
2012,06,14,03,58,0.00
2012,06,14,03,59,0.00
2012,06,14,04,00,0.00
2012,06,14,04,01,0.00
2012,06,14,04,02,0.00
2012,06,14,04,03,0.00
2012,06,14,04,04,0.00
2012,06,14,04,05,0.00
2012,06,14,04,06,0.00
2012,06,14,04,07,0.00
2012,06,14,04,08,0.00
2012,06,14,04,09,0.00
2012,06,14,04,10,0.00
2012,06,14,04,11,0.00
2012,06,14,04,12,0.00
2012,06,14,04,13,0.00
2012,06,14,04,14,0.00
2012,06,14,04,15,0.00
2012,06,14,04,16,0.00
2012,06,14,04,17,0.00
2012,06,14,04,18,0.00
2012,06,14,04,19,0.00
2012,06,14,04,20,0.00
2012,06,14,04,21,0.00
2012,06,14,04,22,0.00
2012,06,14,04,23,0.00
2012,06,14,04,24,0.00
2012,06,14,04,25,0.00
2012,06,14,04,26,0.00
2012,06,14,04,27,0.00
2012,06,14,04,28,0.00
2012,06,14,04,29,0.00
2012,06,14,04,30,0.00
2012,06,14,04,31,0.00
2012,06,14,04,32,0.00
2012,06,14,04,33,0.00
2012,06,14,04,34,0.00
2012,06,14,04,35,0.00
2012,06,14,04,36,0.00
2012,06,14,04,37,0.00
2012,06,14,04,38,0.00
2012,06,14,04,39,0.00
2012,06,14,04,40,0.00
2012,06,14,04,41,0.00
2012,06,14,04,42,0.00
2012,06,14,04,43,0.00
2012,06,14,04,44,0.00
2012,06,14,04,45,0.00
2012,06,14,04,46,0.00
2012,06,14,04,47,0.00
2012,06,14,04,48,0.00
2012,06,14,04,49,0.00
2012,06,14,04,50,0.00
2012,06,14,04,51,0.00
2012,06,14,04,52,0.00
2012,06,14,04,53,0.00
2012,06,14,04,54,0.00
2012,06,14,04,55,0.00
2012,06,14,04,56,0.00
2012,06,14,04,57,0.00
2012,06,14,04,58,0.00
2012,06,14,04,59,0.00
2012,06,14,05,00,0.00
2012,06,14,05,01,0.00
2012,06,14,05,02,0.00
2012,06,14,05,03,0.00
2012,06,14,05,04,0.00
2012,06,14,05,05,0.00
2012,06,14,05,06,0.00
2012,06,14,05,07,0.00
2012,06,14,05,08,0.00
2012,06,14,05,09,0.00
2012,06,14,05,10,0.00
2012,06,14,05,11,0.00
2012,06,14,05,12,0.00
2012,06,14,05,13,0.00
2012,06,14,05,14,0.00
2012,06,14,05,15,0.00
2012,06,14,05,16,0.00
2012,06,14,05,17,0.00
2012,06,14,05,18,0.00
2012,06,14,05,19,0.00
2012,06,14,05,20,0.00
2012,06,14,05,21,0.00
2012,06,14,05,22,0.00
2012,06,14,05,23,0.00
2012,06,14,05,24,0.00
2012,06,14,05,25,0.00
2012,06,14,05,26,0.00
2012,06,14,05,27,0.00
2012,06,14,05,28,0.00
2012,06,14,05,29,0.00
2012,06,14,05,30,0.00
2012,06,14,05,31,0.00
2012,06,14,05,32,0.00
2012,06,14,05,33,0.00
2012,06,14,05,34,0.00
2012,06,14,05,35,0.00
2012,06,14,05,36,0.00
2012,06,14,05,37,0.00
2012,06,14,05,38,0.00
2012,06,14,05,39,0.00
2012,06,14,05,40,0.00
2012,06,14,05,41,0.00
2012,06,14,05,42,0.00
2012,06,14,05,43,2.30
2012,06,14,05,44,5.00
2012,06,14,05,45,5.00
2012,06,14,05,46,5.00
2012,06,14,05,47,5.00
2012,06,14,05,48,5.00
2012,06,14,05,49,5.40
2012,06,14,05,50,7.00
2012,06,14,05,51,7.00
2012,06,14,05,52,7.00
2012,06,14,05,53,7.00
2012,06,14,05,54,7.00
2012,06,14,05,55,7.00
2012,06,14,05,56,7.00
2012,06,14,05,57,7.00
2012,06,14,05,58,7.00
2012,06,14,05,59,7.00
2012,06,14,06,00,7.00
2012,06,14,06,01,7.00
2012,06,14,06,02,7.00
2012,06,14,06,03,7.00
2012,06,14,06,04,7.00
2012,06,14,06,05,7.00
2012,06,14,06,06,7.00
2012,06,14,06,07,7.00
2012,06,14,06,08,7.80
2012,06,14,06,09,8.00
2012,06,14,06,10,7.00
2012,06,14,06,11,7.00
2012,06,14,06,12,7.00
2012,06,14,06,13,7.00
2012,06,14,06,14,7.30
2012,06,14,06,15,9.00
2012,06,14,06,16,9.00
2012,06,14,06,17,9.00
2012,06,14,06,18,9.00
2012,06,14,06,19,9.00
2012,06,14,06,20,9.00
2012,06,14,06,21,9.00
2012,06,14,06,22,9.00
2012,06,14,06,23,9.40
2012,06,14,06,24,11.00
2012,06,14,06,25,11.40
2012,06,14,06,26,13.00
2012,06,14,06,27,15.10
2012,06,14,06,28,17.40
2012,06,14,06,29,18.80
2012,06,14,06,30,20.80
2012,06,14,06,31,21.00
2012,06,14,06,32,21.00
2012,06,14,06,33,20.30
2012,06,14,06,34,19.00
2012,06,14,06,35,20.00
2012,06,14,06,36,22.30
2012,06,14,06,37,24.40
2012,06,14,06,38,25.80
2012,06,14,06,39,27.90
2012,06,14,06,40,28.30
2012,06,14,06,41,30.80
2012,06,14,06,42,33.70
2012,06,14,06,43,36.80
2012,06,14,06,44,39.00
2012,06,14,06,45,39.00
2012,06,14,06,46,39.00
2012,06,14,06,47,35.50
2012,06,14,06,48,31.60
2012,06,14,06,49,27.60
2012,06,14,06,50,25.70
2012,06,14,06,51,24.20
2012,06,14,06,52,23.00
2012,06,14,06,53,23.00
2012,06,14,06,54,24.50
2012,06,14,06,55,25.00
2012,06,14,06,56,25.90
2012,06,14,06,57,26.30
2012,06,14,06,58,28.50
2012,06,14,06,59,31.10
2012,06,14,07,00,34.00
2012,06,14,07,01,35.00
2012,06,14,07,02,33.70
2012,06,14,07,03,32.20
2012,06,14,07,04,28.60
2012,06,14,07,05,25.00
2012,06,14,07,06,23.00
2012,06,14,07,07,23.00
2012,06,14,07,08,23.80
2012,06,14,07,09,25.50
2012,06,14,07,10,28.40
2012,06,14,07,11,32.00
2012,06,14,07,12,36.00
2012,06,14,07,13,39.70
2012,06,14,07,14,42.20
2012,06,14,07,15,44.50
2012,06,14,07,16,46.00
2012,06,14,07,17,46.00
2012,06,14,07,18,46.00
2012,06,14,07,19,46.00
2012,06,14,07,20,46.00
2012,06,14,07,21,44.30
2012,06,14,07,22,44.10
2012,06,14,07,23,46.20
2012,06,14,07,24,47.90
2012,06,14,07,25,52.10
2012,06,14,07,26,55.70
2012,06,14,07,27,60.20
2012,06,14,07,28,62.70
2012,06,14,07,29,62.20
2012,06,14,07,30,62.00
2012,06,14,07,31,62.30
2012,06,14,07,32,65.70
2012,06,14,07,33,69.30
2012,06,14,07,34,70.00
2012,06,14,07,35,69.50
2012,06,14,07,36,66.70
2012,06,14,07,37,63.60
2012,06,14,07,38,62.20
2012,06,14,07,39,60.20
2012,06,14,07,40,60.00
2012,06,14,07,41,60.50
2012,06,14,07,42,62.00
2012,06,14,07,43,62.50
2012,06,14,07,44,63.00
2012,06,14,07,45,64.30
2012,06,14,07,46,63.40
2012,06,14,07,47,63.00
2012,06,14,07,48,65.00
2012,06,14,07,49,65.40
2012,06,14,07,50,67.60
2012,06,14,07,51,70.10
2012,06,14,07,52,72.90
2012,06,14,07,53,74.00
2012,06,14,07,54,75.40
2012,06,14,07,55,76.00
2012,06,14,07,56,76.00
2012,06,14,07,57,77.30
2012,06,14,07,58,79.80
2012,06,14,07,59,83.90
2012,06,14,08,00,88.10
2012,06,14,08,01,94.10
2012,06,14,08,02,98.90
2012,06,14,08,03,100.00
2012,06,14,08,04,101.70
2012,06,14,08,05,102.00
2012,06,14,08,06,102.30
2012,06,14,08,07,104.30
2012,06,14,08,08,106.50
2012,06,14,08,09,110.90
2012,06,14,08,10,115.80
2012,06,14,08,11,121.20
2012,06,14,08,12,124.50
2012,06,14,08,13,127.60
2012,06,14,08,14,132.30
2012,06,14,08,15,135.70
2012,06,14,08,16,139.80
2012,06,14,08,17,142.80
2012,06,14,08,18,144.00
2012,06,14,08,19,142.20
2012,06,14,08,20,138.20
2012,06,14,08,21,134.50
2012,06,14,08,22,132.10
2012,06,14,08,23,132.00
2012,06,14,08,24,132.70
2012,06,14,08,25,135.70
2012,06,14,08,26,136.10
2012,06,14,08,27,131.10
2012,06,14,08,28,123.50
2012,06,14,08,29,115.40
2012,06,14,08,30,109.70
2012,06,14,08,31,107.10
2012,06,14,08,32,107.40
2012,06,14,08,33,109.60
2012,06,14,08,34,111.70
2012,06,14,08,35,113.50
2012,06,14,08,36,115.10
2012,06,14,08,37,117.40
2012,06,14,08,38,120.30
2012,06,14,08,39,124.70
2012,06,14,08,40,127.30
2012,06,14,08,41,130.50
2012,06,14,08,42,132.00
2012,06,14,08,43,132.00
2012,06,14,08,44,132.00
2012,06,14,08,45,132.00
2012,06,14,08,46,132.00
2012,06,14,08,47,134.50
2012,06,14,08,48,138.90
2012,06,14,08,49,141.00
2012,06,14,08,50,141.20
2012,06,14,08,51,142.00
2012,06,14,08,52,143.80
2012,06,14,08,53,147.10
2012,06,14,08,54,150.10
2012,06,14,08,55,151.00
2012,06,14,08,56,151.00
2012,06,14,08,57,151.20
2012,06,14,08,58,154.90
2012,06,14,08,59,168.10
2012,06,14,09,00,187.00
2012,06,14,09,01,214.10
2012,06,14,09,02,248.30
2012,06,14,09,03,272.20
2012,06,14,09,04,294.80
2012,06,14,09,05,282.60
2012,06,14,09,06,276.00
2012,06,14,09,07,262.30
2012,06,14,09,08,252.80
2012,06,14,09,09,241.70
2012,06,14,09,10,236.50
2012,06,14,09,11,234.70
2012,06,14,09,12,230.90
2012,06,14,09,13,224.00
2012,06,14,09,14,220.10
2012,06,14,09,15,221.00
2012,06,14,09,16,225.00
2012,06,14,09,17,222.30
2012,06,14,09,18,219.50
2012,06,14,09,19,227.80
2012,06,14,09,20,238.00
2012,06,14,09,21,241.00
2012,06,14,09,22,249.20
2012,06,14,09,23,261.20
2012,06,14,09,24,271.90
2012,06,14,09,25,285.50
2012,06,14,09,26,297.40
2012,06,14,09,27,308.00
2012,06,14,09,28,318.90
2012,06,14,09,29,324.10
2012,06,14,09,30,328.30
2012,06,14,09,31,325.30
2012,06,14,09,32,328.90
2012,06,14,09,33,343.20
2012,06,14,09,34,359.00
2012,06,14,09,35,361.50
2012,06,14,09,36,389.20
2012,06,14,09,37,407.40
2012,06,14,09,38,404.00
2012,06,14,09,39,403.00
2012,06,14,09,40,543.00
2012,06,14,09,41,519.00
2012,06,14,09,42,432.00
2012,06,14,09,43,464.00
2012,06,14,09,44,553.20
2012,06,14,09,45,601.00
2012,06,14,09,46,602.90
2012,06,14,09,47,682.70
2012,06,14,09,48,687.90
2012,06,14,09,49,475.70
2012,06,14,09,50,475.90
2012,06,14,09,51,458.40
2012,06,14,09,52,446.80
2012,06,14,09,53,443.60
2012,06,14,09,54,447.30
2012,06,14,09,55,449.50
2012,06,14,09,56,525.40
2012,06,14,09,57,608.50
2012,06,14,09,58,612.00
2012,06,14,09,59,689.60
2012,06,14,10,00,862.90
2012,06,14,10,01,872.00
2012,06,14,10,02,872.00
2012,06,14,10,03,584.70
2012,06,14,10,04,410.20
2012,06,14,10,05,380.40
2012,06,14,10,06,360.90
2012,06,14,10,07,349.60
2012,06,14,10,08,377.40
2012,06,14,10,09,432.00
2012,06,14,10,10,432.00
2012,06,14,10,11,362.60
2012,06,14,10,12,314.30
2012,06,14,10,13,306.90
2012,06,14,10,14,298.30
2012,06,14,10,15,286.10
2012,06,14,10,16,274.90
2012,06,14,10,17,263.70
2012,06,14,10,18,253.50
2012,06,14,10,19,244.20
2012,06,14,10,20,236.10
2012,06,14,10,21,230.10
2012,06,14,10,22,225.50
2012,06,14,10,23,223.00
2012,06,14,10,24,223.40
2012,06,14,10,25,225.50
2012,06,14,10,26,228.10
2012,06,14,10,27,233.10
2012,06,14,10,28,239.20
2012,06,14,10,29,247.50
2012,06,14,10,30,256.50
2012,06,14,10,31,268.50
2012,06,14,10,32,280.10
2012,06,14,10,33,288.20
2012,06,14,10,34,293.60
2012,06,14,10,35,298.60
2012,06,14,10,36,302.60
2012,06,14,10,37,305.30
2012,06,14,10,38,307.50
2012,06,14,10,39,308.90
2012,06,14,10,40,313.20
2012,06,14,10,41,315.20
2012,06,14,10,42,317.10
2012,06,14,10,43,321.10
2012,06,14,10,44,326.00
2012,06,14,10,45,331.90
2012,06,14,10,46,335.40
2012,06,14,10,47,336.00
2012,06,14,10,48,336.00
2012,06,14,10,49,340.00
2012,06,14,10,50,348.00
2012,06,14,10,51,359.90
2012,06,14,10,52,400.40
2012,06,14,10,53,408.00
2012,06,14,10,54,389.80
2012,06,14,10,55,426.50
2012,06,14,10,56,404.60
2012,06,14,10,57,380.20
2012,06,14,10,58,361.80
2012,06,14,10,59,339.20
2012,06,14,11,00,325.00
2012,06,14,11,01,313.70
2012,06,14,11,02,304.30
2012,06,14,11,03,298.30
2012,06,14,11,04,297.00
2012,06,14,11,05,300.50
2012,06,14,11,06,308.70
2012,06,14,11,07,318.00
2012,06,14,11,08,330.70
2012,06,14,11,09,343.50
2012,06,14,11,10,355.00
2012,06,14,11,11,364.50
2012,06,14,11,12,369.90
2012,06,14,11,13,372.70
2012,06,14,11,14,372.70
2012,06,14,11,15,364.60
2012,06,14,11,16,355.10
2012,06,14,11,17,348.20
2012,06,14,11,18,342.30
2012,06,14,11,19,338.50
2012,06,14,11,20,340.00
2012,06,14,11,21,353.40
2012,06,14,11,22,357.00
2012,06,14,11,23,360.20
2012,06,14,11,24,375.10
2012,06,14,11,25,373.70
2012,06,14,11,26,368.00
2012,06,14,11,27,353.50
2012,06,14,11,28,352.90
2012,06,14,11,29,376.00
2012,06,14,11,30,994.00
2012,06,14,11,31,1086.10
2012,06,14,11,32,1085.00
2012,06,14,11,33,1085.00
2012,06,14,11,34,1085.00
2012,06,14,11,35,1085.00
2012,06,14,11,36,1085.00
2012,06,14,11,37,952.60
2012,06,14,11,38,877.00
2012,06,14,11,39,877.00
2012,06,14,11,40,548.60
2012,06,14,11,41,533.00
2012,06,14,11,42,647.30
2012,06,14,11,43,996.30
2012,06,14,11,44,991.40
2012,06,14,11,45,1057.60
2012,06,14,11,46,1085.70
2012,06,14,11,47,1099.10
2012,06,14,11,48,1095.60
2012,06,14,11,49,1090.10
2012,06,14,11,50,1059.30
2012,06,14,11,51,1020.60
2012,06,14,11,52,1040.60
2012,06,14,11,53,1002.20
2012,06,14,11,54,997.00
2012,06,14,11,55,997.00
2012,06,14,11,56,997.00
2012,06,14,11,57,997.00
2012,06,14,11,58,997.00
2012,06,14,11,59,997.00
2012,06,14,12,00,997.00
2012,06,14,12,01,997.00
2012,06,14,12,02,997.00
2012,06,14,12,03,997.00
2012,06,14,12,04,997.00
2012,06,14,12,05,997.00
2012,06,14,12,06,1166.00
2012,06,14,12,07,1174.10
2012,06,14,12,08,1097.70
2012,06,14,12,09,1025.00
2012,06,14,12,10,977.50
2012,06,14,12,11,930.00
2012,06,14,12,12,587.10
2012,06,14,12,13,500.70
2012,06,14,12,14,512.00
2012,06,14,12,15,504.80
2012,06,14,12,16,457.00
2012,06,14,12,17,457.00
2012,06,14,12,18,457.00
2012,06,14,12,19,457.00
2012,06,14,12,20,457.00
2012,06,14,12,21,462.20
2012,06,14,12,22,464.00
2012,06,14,12,23,1075.40
2012,06,14,12,24,1085.50
2012,06,14,12,25,1083.00
2012,06,14,12,26,1084.90
2012,06,14,12,27,1089.90
2012,06,14,12,28,1092.60
2012,06,14,12,29,1097.80
2012,06,14,12,30,1105.40
2012,06,14,12,31,1123.40
2012,06,14,12,32,1146.90
2012,06,14,12,33,1172.70
2012,06,14,12,34,1206.60
2012,06,14,12,35,1257.30
2012,06,14,12,36,1309.60
2012,06,14,12,37,1315.00
2012,06,14,12,38,1315.00
2012,06,14,12,39,1315.00
2012,06,14,12,40,563.00
2012,06,14,12,41,493.30
2012,06,14,12,42,488.00
2012,06,14,12,43,490.10
2012,06,14,12,44,522.30
2012,06,14,12,45,548.00
2012,06,14,12,46,548.00
2012,06,14,12,47,548.00
2012,06,14,12,48,548.00
2012,06,14,12,49,548.00
2012,06,14,12,50,560.50
2012,06,14,12,51,606.10
2012,06,14,12,52,581.90
2012,06,14,12,53,578.50
2012,06,14,12,54,618.40
2012,06,14,12,55,658.10
2012,06,14,12,56,646.30
2012,06,14,12,57,641.50
2012,06,14,12,58,626.80
2012,06,14,12,59,611.30
2012,06,14,13,00,576.70
2012,06,14,13,01,546.30
2012,06,14,13,02,525.20
2012,06,14,13,03,519.30
2012,06,14,13,04,521.20
2012,06,14,13,05,517.70
2012,06,14,13,06,508.40
2012,06,14,13,07,559.10
2012,06,14,13,08,614.50
2012,06,14,13,09,616.00
2012,06,14,13,10,662.20
2012,06,14,13,11,676.20
2012,06,14,13,12,689.00
2012,06,14,13,13,689.00
2012,06,14,13,14,689.00
2012,06,14,13,15,678.60
2012,06,14,13,16,588.50
2012,06,14,13,17,613.00
2012,06,14,13,18,584.20
2012,06,14,13,19,559.00
2012,06,14,13,20,559.00
2012,06,14,13,21,560.50
2012,06,14,13,22,577.30
2012,06,14,13,23,586.70
2012,06,14,13,24,723.40
2012,06,14,13,25,708.50
2012,06,14,13,26,744.00
2012,06,14,13,27,744.00
2012,06,14,13,28,850.40
2012,06,14,13,29,939.00
2012,06,14,13,30,939.00
2012,06,14,13,31,1113.90
2012,06,14,13,32,1141.00
2012,06,14,13,33,1114.90
2012,06,14,13,34,1089.60
2012,06,14,13,35,1089.20
2012,06,14,13,36,1100.00
2012,06,14,13,37,922.70
2012,06,14,13,38,800.00
2012,06,14,13,39,1048.70
2012,06,14,13,40,1090.90
2012,06,14,13,41,1083.00
2012,06,14,13,42,1083.50
2012,06,14,13,43,1086.10
2012,06,14,13,44,1088.00
2012,06,14,13,45,1094.00
2012,06,14,13,46,1103.60
2012,06,14,13,47,1109.90
2012,06,14,13,48,1117.00
2012,06,14,13,49,1129.70
2012,06,14,13,50,1132.40
2012,06,14,13,51,1141.60
2012,06,14,13,52,1135.00
2012,06,14,13,53,1081.00
2012,06,14,13,54,1163.10
2012,06,14,13,55,1225.00
2012,06,14,13,56,1227.00
2012,06,14,13,57,1243.40
2012,06,14,13,58,1245.00
2012,06,14,13,59,1245.00
2012,06,14,14,00,1245.00
2012,06,14,14,01,1004.00
2012,06,14,14,02,705.00
2012,06,14,14,03,698.70
2012,06,14,14,04,671.00
2012,06,14,14,05,671.00
2012,06,14,14,06,671.00
2012,06,14,14,07,671.00
2012,06,14,14,08,671.00
2012,06,14,14,09,896.70
2012,06,14,14,10,1366.00
2012,06,14,14,11,1390.00
2012,06,14,14,12,1390.00
2012,06,14,14,13,1390.00
2012,06,14,14,14,674.00
2012,06,14,14,15,592.50
2012,06,14,14,16,580.50
2012,06,14,14,17,615.10
2012,06,14,14,18,673.00
2012,06,14,14,19,673.00
2012,06,14,14,20,974.90
2012,06,14,14,21,1169.00
2012,06,14,14,22,1169.00
2012,06,14,14,23,1169.00
2012,06,14,14,24,1102.40
2012,06,14,14,25,703.00
2012,06,14,14,26,703.00
2012,06,14,14,27,985.30
2012,06,14,14,28,1324.00
2012,06,14,14,29,1315.10
2012,06,14,14,30,1310.00
2012,06,14,14,31,1310.00
2012,06,14,14,32,1306.60
2012,06,14,14,33,1312.10
2012,06,14,14,34,1315.30
2012,06,14,14,35,1317.10
2012,06,14,14,36,1336.00
2012,06,14,14,37,1345.00
2012,06,14,14,38,1345.00
2012,06,14,14,39,1312.10
2012,06,14,14,40,1303.00
2012,06,14,14,41,1287.60
2012,06,14,14,42,1141.00
2012,06,14,14,43,1072.10
2012,06,14,14,44,944.00
2012,06,14,14,45,944.00
2012,06,14,14,46,700.00
2012,06,14,14,47,583.30
2012,06,14,14,48,609.50
2012,06,14,14,49,626.70
2012,06,14,14,50,860.00
2012,06,14,14,51,860.00
2012,06,14,14,52,860.00
2012,06,14,14,53,700.00
2012,06,14,14,54,529.70
2012,06,14,14,55,522.00
2012,06,14,14,56,522.00
2012,06,14,14,57,522.00
2012,06,14,14,58,522.00
2012,06,14,14,59,522.00
2012,06,14,15,00,522.00
2012,06,14,15,01,672.10
2012,06,14,15,02,916.00
2012,06,14,15,03,651.80
2012,06,14,15,04,464.50
2012,06,14,15,05,443.30
2012,06,14,15,06,431.40
2012,06,14,15,07,418.70
2012,06,14,15,08,409.20
2012,06,14,15,09,400.60
2012,06,14,15,10,391.90
2012,06,14,15,11,383.20
2012,06,14,15,12,374.30
2012,06,14,15,13,365.70
2012,06,14,15,14,359.80
2012,06,14,15,15,349.60
2012,06,14,15,16,339.70
2012,06,14,15,17,332.10
2012,06,14,15,18,324.10
2012,06,14,15,19,317.50
2012,06,14,15,20,312.60
2012,06,14,15,21,309.00
2012,06,14,15,22,304.70
2012,06,14,15,23,302.20
2012,06,14,15,24,300.80
2012,06,14,15,25,299.00
2012,06,14,15,26,298.40
2012,06,14,15,27,297.80
2012,06,14,15,28,299.00
2012,06,14,15,29,300.30
2012,06,14,15,30,301.00
2012,06,14,15,31,299.30
2012,06,14,15,32,297.00
2012,06,14,15,33,294.50
2012,06,14,15,34,290.60
2012,06,14,15,35,285.50
2012,06,14,15,36,279.70
2012,06,14,15,37,271.80
2012,06,14,15,38,262.70
2012,06,14,15,39,254.70
2012,06,14,15,40,248.70
2012,06,14,15,41,242.50
2012,06,14,15,42,235.50
2012,06,14,15,43,227.80
2012,06,14,15,44,225.00
2012,06,14,15,45,226.00
2012,06,14,15,46,227.00
2012,06,14,15,47,224.10
2012,06,14,15,48,219.00
2012,06,14,15,49,220.50
2012,06,14,15,50,272.00
2012,06,14,15,51,272.00
2012,06,14,15,52,272.00
2012,06,14,15,53,272.00
2012,06,14,15,54,272.00
2012,06,14,15,55,681.60
2012,06,14,15,56,896.10
2012,06,14,15,57,893.30
2012,06,14,15,58,890.80
2012,06,14,15,59,886.70
2012,06,14,16,00,881.00
2012,06,14,16,01,879.40
2012,06,14,16,02,876.00
2012,06,14,16,03,875.00
2012,06,14,16,04,877.80
2012,06,14,16,05,881.50
2012,06,14,16,06,885.60
2012,06,14,16,07,886.30
2012,06,14,16,08,888.20
2012,06,14,16,09,889.60
2012,06,14,16,10,891.90
2012,06,14,16,11,893.00
2012,06,14,16,12,891.70
2012,06,14,16,13,894.60
2012,06,14,16,14,905.40
2012,06,14,16,15,919.90
2012,06,14,16,16,951.00
2012,06,14,16,17,951.00
2012,06,14,16,18,894.30
2012,06,14,16,19,795.00
2012,06,14,16,20,869.50
2012,06,14,16,21,878.00
2012,06,14,16,22,885.00
2012,06,14,16,23,889.40
2012,06,14,16,24,891.20
2012,06,14,16,25,893.60
2012,06,14,16,26,897.10
2012,06,14,16,27,904.90
2012,06,14,16,28,912.00
2012,06,14,16,29,921.70
2012,06,14,16,30,928.00
2012,06,14,16,31,928.00
2012,06,14,16,32,928.00
2012,06,14,16,33,928.00
2012,06,14,16,34,928.00
2012,06,14,16,35,819.80
2012,06,14,16,36,617.00
2012,06,14,16,37,489.40
2012,06,14,16,38,393.40
2012,06,14,16,39,397.50
2012,06,14,16,40,397.00
2012,06,14,16,41,440.40
2012,06,14,16,42,874.00
2012,06,14,16,43,790.50
2012,06,14,16,44,568.00
2012,06,14,16,45,453.70
2012,06,14,16,46,345.50
2012,06,14,16,47,357.00
2012,06,14,16,48,357.00
2012,06,14,16,49,357.00
2012,06,14,16,50,738.70
2012,06,14,16,51,819.00
2012,06,14,16,52,819.00
2012,06,14,16,53,819.00
2012,06,14,16,54,802.10
2012,06,14,16,55,784.20
2012,06,14,16,56,778.10
2012,06,14,16,57,775.30
2012,06,14,16,58,766.80
2012,06,14,16,59,771.60
2012,06,14,17,00,766.10
2012,06,14,17,01,772.70
2012,06,14,17,02,768.00
2012,06,14,17,03,768.00
2012,06,14,17,04,753.70
2012,06,14,17,05,756.30
2012,06,14,17,06,752.60
2012,06,14,17,07,752.00
2012,06,14,17,08,751.50